Location: Rancho Santa Fe Post Office
(33.0184°N, 117.2026°W)
Time: 04:40:05
(UTC+00:00)

Cosmos 1939 Rocket - Pass Details

Date: 10 September 2024
Orbit: 510 x 550 km, 97.5° (Epoch: 09 October)

Event Time Altitude Azimuth Distance (km) Brightness Sun altitude
Rises 12:46:04 0° 1° (N) 2,734 6.6 -9.8°
Reaches altitude 10° 12:48:18 10° 354° (N) 1,838 5.6 -9.4°
Maximum altitude 12:51:59 37° 286° (WNW) 867 3.4 -8.6°
Drops below altitude 10° 12:55:39 10° 218° (SW) 1,825 5.0 -7.9°
Sets 12:57:52 0° 210° (SSW) 2,712 6.0 -7.4°
